User: anonymous   Login
Location: Unspecified
(0.0000°N, 0.0000°E)
Time: 15:53:48
(UTC+02:00)
Language:

Orbus 21S - Orbit

View from above orbital plane
View from above orbital plane
View from above satellite
View from above satellite

Ground track
Ground track

The orbit data is extracted from the following two-line orbital elements,

1 20669U 90056C   17263.07779245 +.00000834 +00000-0 +53527-3 0  9993
2 20669 024.4535 047.3253 7100612 092.1930 343.3040 02.48473652229789
Epoch (UTC): 20 September 2017 01:52:01
Eccentricity: 0.7100612
inclination: 24.4535°
perigee height: 298 km
apogee height: 32997 km
right ascension of ascending node: 47.3253°
argument of perigee: 92.1930°
revolutions per day: 2.48473652
mean anomaly at epoch: 343.3040°
orbit number at epoch: 22978

The dashed part of the orbit path shows where the satellite is in the earth's shadow,  

DLR